Regional Weather Roundup
Issued by NWS

Home | Current Version | Previous Version | Text Only | Print | Product List | Glossary Off
Versions: 1 2 3 4 5 6 7 8 9 10 11 12 13 14 15 16 17 18 19 20 21 22 23 24 25 26 27

000
ASUS45 KCYS 220810
RWRWY

WYOMING REGIONAL WEATHER ROUNDUP
NATIONAL WEATHER SERVICE CHEYENNE WY
200 AM MDT TUE APR 22 2014

NOTE:  "FAIR" INDICATES FEW OR NO CLOUDS BELOW 12,000 FEET
WITH NO SIGNIFICANT WEATHER AND/OR OBSTRUCTIONS TO VISIBILITY.

WYZ001-220900-
YELLOWSTONE NATIONAL PARK

CITY           SKY/WX    TMP DP  RH WIND       PRES   REMARKS
LK YELLOWSTONE   N/A     31  25  78 CALM      30.09R
W YELLOWSTONE  NOT AVBL

$$
WYZ002>013-054>058-071-098>099-220900-
NORTHERN WYOMING

CITY           SKY/WX    TMP DP  RH WIND       PRES   REMARKS
JACKSON        CLOUDY    43  28  56 NE6       30.02S
CODY           MOCLDY    46  30  53 CALM      29.93F
GREYBULL       MOCLDY    54  28  36 CALM      29.90F
WORLAND        PTCLDY    49  30  48 CALM      29.92F
SHERIDAN       CLOUDY    46  36  68 CALM      29.92F
BUFFALO        MOCLDY    46  31  55 VRB5      29.96F
GILLETTE       MOCLDY    49  31  49 S13       29.98F
HULETT         FAIR      50  28  43 CALM      29.99
NEWCASTLE      FAIR      55  23  28 E16G24    30.02

$$
WYZ014>020-022>026-101>103-220900-
CENTRAL WYOMING

CITY           SKY/WX    TMP DP  RH WIND       PRES   REMARKS
BIG PINEY      CLOUDY    41  29  62 NW3       30.07S
PINEDALE       CLOUDY    41  30  65 NW3       30.06S
DUBOIS         CLOUDY    37  23  56 NW5       30.03F WCI  34
LANDER         CLEAR     47  24  40 W7        29.96F
RIVERTON       CLEAR     42  21  43 NW9       29.97F
CASPER         MOCLDY    43  34  70 NE3       29.99F
DOUGLAS        CLEAR     43  35  73 SE9       30.02F

$$
WYZ021-027>030-104>119-220900-
SOUTHERN WYOMING

CITY           SKY/WX    TMP DP  RH WIND       PRES   REMARKS
EVANSTON         N/A     49  26  41 S7        30.02F
KEMMERER       CLOUDY    46  28  49 NE3       30.04F
FORT BRIDGER   FAIR      50  28  43 SW9       30.06F
ROCK SPRINGS   MOCLDY    51  24  34 S7        30.04F
DIXON          FAIR      40  30  66 CALM      30.12F
RAWLINS        MOCLDY    36  15  42 CALM      30.08F
SARATOGA       FAIR      41  27  56 SE12      30.11F
LARAMIE        CLEAR     35  29  78 S12       30.13F WCI  27
CHEYENNE       PTCLDY    41  32  70 W7        30.10F
TORRINGTON     CLEAR     44  31  60 E8        30.03F
PINE BLUFFS    FAIR      46  32  57 S9        30.08F

$$



USA.gov is the U.S. government's official web portal to all federal, state and local government web resources and services.